Lapse_Rate
8.8 9.1 8.8 8.5 8.6 8.6 8.4 8.4 8.1 8.1 7.9 8.0 8.1 8.3 8.5 8.4 8.3 8.5 8.4 8.2 8.1 8.0 7.8 7.5 7.3 7.0 6.8 6.7 6.6 6.6 6.4 6.4 6.4 6.0 5.9 5.7 5.6 5.5 5.8 6.2 6.2 6.5 6.3 6.7
8.9 8.8 8.6 8.3 8.3 8.2 8.2 8.1 7.9 7.8 7.7 8.2 8.1 8.4 8.6 8.7 8.5 8.4 8.4 8.2 7.9 7.7 7.6 7.3 6.9 6.7 6.7 6.6 6.5 6.3 6.1 6.1 6.2 6.0 5.8 5.9 5.9 6.1 6.5 6.3 6.6 6.3 6.7 6.5
8.5 8.6 8.4 7.5 7.9 8.1 8.0 7.9 7.8 7.5 7.7 8.0 7.9 8.2 8.5 8.6 8.5 8.3 8.2 7.9 7.7 7.6 7.3 7.0 6.8 6.6 6.4 6.3 6.3 6.1 6.2 6.2 6.3 6.1 6.1 6.2 6.2 6.4 6.3 6.5 6.6 6.6 6.4 5.3
8.4 8.1 5.8 7.8 7.7 7.6 7.6 7.5 7.5 7.5 7.6 7.8 7.9 8.1 8.3 8.3 8.1 7.9 7.6 7.5 7.3 7.2 7.0 6.8 6.5 6.3 6.2 6.0 6.0 6.0 6.0 6.0 6.1 6.0 5.9 6.1 6.1 6.4 6.7 6.9 6.4 5.4 5.2 5.2
8.2 7.6 7.7 7.3 7.4 7.9 7.6 7.5 7.5 7.6 7.6 7.6 7.8 7.8 7.7 7.7 7.6 7.4 7.4 7.3 7.2 7.0 6.8 6.5 6.3 6.0 5.9 5.9 5.9 6.0 6.0 5.9 5.8 5.5 5.7 6.0 6.4 6.9 6.5 5.9 5.6 5.4 5.3 5.2
7.9 7.4 5.3 7.5 7.7 7.7 7.8 7.1 7.6 7.7 7.7 7.8 7.9 7.7 7.5 7.3 7.2 7.1 7.0 6.9 6.8 6.6 6.3 6.0 5.8 5.9 5.9 5.9 6.0 5.9 5.7 5.2 5.3 5.6 5.4 5.7 5.6 6.1 5.7 5.5 5.3 5.3 5.1 5.3
8.0 7.5 7.3 7.5 7.4 7.6 7.3 7.9 7.8 7.8 7.7 7.6 7.6 7.5 7.4 7.2 7.0 7.0 6.9 6.7 6.4 6.0 5.9 5.8 5.8 5.9 6.0 6.0 5.7 5.5 5.4 5.2 5.2 5.4 5.7 5.7 5.6 5.5 5.5 5.4 5.2 5.3 5.4 5.6
7.6 7.2 6.6 7.7 7.3 7.2 7.5 7.5 7.7 7.7 7.6 7.5 7.3 7.1 7.0 6.9 6.9 6.8 6.6 6.4 6.2 6.1 6.0 5.9 5.9 5.8 5.6 5.3 5.2 5.3 5.4 5.3 5.3 5.5 5.8 5.9 5.6 5.5 5.3 5.2 5.3 5.4 5.6 6.0
8.0 8.1 7.9 7.7 7.7 7.6 7.2 7.3 7.6 7.5 7.3 7.2 7.0 6.9 6.8 6.8 6.7 6.5 6.3 6.2 6.1 6.0 5.9 5.8 5.6 5.5 4.9 5.1 5.4 5.4 5.3 5.4 5.5 5.6 5.5 5.4 5.3 5.2 5.1 5.1 5.3 5.6 5.8 5.8
8.1 8.1 8.0 7.7 7.7 7.7 7.5 7.2 7.3 7.3 7.2 7.1 7.0 6.9 6.8 6.7 6.5 6.3 6.2 6.1 6.0 5.9 5.8 5.5 5.1 4.7 4.9 5.1 4.9 5.1 5.2 5.2 5.3 5.3 5.2 5.1 4.9 4.8 5.0 5.3 5.5 5.7 5.8 5.9
8.2 8.1 8.0 8.1 7.9 7.6 7.5 7.4 7.3 7.3 7.1 7.0 6.8 6.7 6.6 6.4 6.3 6.2 6.1 6.0 5.9 5.8 5.6 4.9 4.9 5.1 4.9 5.0 5.1 5.1 5.1 5.2 5.2 5.1 5.0 4.9 4.9 5.1 5.2 5.5 5.6 5.7 5.8 5.8
8.4 8.7 8.5 8.1 7.8 7.6 7.4 7.2 7.2 7.1 6.9 6.8 6.8 6.6 6.5 6.3 6.1 6.1 6.0 5.9 5.8 5.5 4.8 4.9 4.8 4.9 5.1 5.1 5.0 5.1 5.1 5.0 4.9 4.9 4.7 4.8 4.9 5.3 5.7 5.8 5.9 6.0 6.1 6.3
8.6 8.6 8.2 8.0 7.7 7.5 7.3 7.2 7.1 7.0 6.9 6.7 6.6 6.5 6.3 6.1 6.0 5.9 5.7 5.7 5.6 5.2 5.1 5.0 4.9 5.0 5.0 4.9 5.0 5.0 4.9 4.9 4.9 4.8 5.0 5.3 5.6 5.7 5.8 6.1 6.2 6.4 6.8 7.2
8.3 8.5 8.3 8.1 7.9 7.6 7.4 7.2 7.1 6.9 6.8 6.7 6.6 6.4 6.2 6.1 6.0 5.9 5.8 5.6 5.4 5.1 5.0 4.9 4.9 4.9 4.8 4.9 5.0 4.9 4.8 4.8 4.8 4.9 5.2 5.4 5.6 5.7 5.8 5.8 6.0 6.4 7.1 7.1
8.2 8.2 8.1 7.9 7.6 7.5 7.4 7.2 7.1 7.0 6.8 6.7 6.5 6.4 6.3 6.2 5.9 5.7 5.5 5.3 5.0 4.9 4.9 4.8 4.8 4.8 4.9 4.9 4.9 4.9 4.9 5.0 5.2 5.4 5.6 5.7 5.7 5.8 5.9 6.2 6.5 6.6 6.8 6.7
8.2 8.0 8.1 7.9 7.6 7.6 7.5 7.4 7.1 7.0 6.9 6.7 6.5 6.3 6.1 5.9 5.7 5.4 5.1 4.9 4.8 4.5 4.5 4.6 4.7 4.8 4.8 4.8 4.9 4.8 4.9 5.2 5.5 5.7 5.7 5.7 5.8 6.1 6.3 6.4 6.4 6.2 6.0 6.0
7.9 7.9 7.8 7.7 7.6 7.6 7.6 7.2 6.9 6.7 6.5 6.5 6.2 5.8 5.8 5.7 5.3 4.8 4.6 4.5 4.2 3.9 4.0 4.6 4.8 4.7 4.7 4.8 4.8 4.9 5.4 5.6 5.7 5.7 5.7 5.9 6.2 6.4 6.3 6.0 5.8 5.8 5.6 5.4
7.1 7.2 7.1 7.5 7.4 7.4 7.1 6.8 6.7 6.6 6.3 5.8 5.7 5.6 5.5 5.1 4.7 4.6 4.5 3.9 3.9 3.9 4.5 4.5 4.6 4.7 4.7 4.6 5.0 5.4 5.7 5.8 5.8 5.9 6.0 6.2 6.3 6.1 5.8 5.6 5.4 5.4 5.4 5.7
7.1 7.1 7.2 7.0 6.8 6.7 6.5 6.1 5.8 5.7 5.6 5.7 5.6 5.5 5.1 4.7 4.8 4.6 4.2 3.9 4.2 4.4 4.5 4.5 4.6 4.5 4.4 5.0 5.4 5.8 5.9 5.8 6.0 6.2 6.3 6.3 5.9 5.7 5.6 5.3 5.3 5.2 5.4 5.7
6.7 6.6 6.4 6.4 6.4 6.2 5.7 5.3 4.8 5.1 5.6 5.5 5.2 4.8 4.7 4.5 4.4 4.1 4.0 4.3 4.4 4.4 4.5 4.5 4.5 4.6 5.1 5.6 5.8 5.9 5.9 6.2 6.3 6.4 6.2 6.0 5.8 5.6 5.4 5.2 5.0 5.0 5.3 5.3
6.3 6.2 6.2 5.8 5.7 5.3 5.6 4.8 4.6 5.0 4.9 4.9 4.8 4.6 4.4 4.1 3.8 4.0 4.2 4.3 4.4 4.5 4.5 4.6 4.8 5.2 5.7 5.8 5.9 6.0 6.5 6.5 6.4 6.2 6.1 5.9 5.7 5.5 5.1 5.0 4.7 4.8 5.1 5.1
5.6 5.5 5.5 5.4 5.1 4.7 4.6 4.7 4.7 4.7 4.6 4.7 4.6 4.1 3.8 3.7 3.9 4.1 4.2 4.4 4.5 4.6 4.8 5.1 5.5 5.7 5.8 6.1 6.4 6.6 6.6 6.4 6.3 6.1 5.9 5.7 5.5 5.2 5.0 4.9 4.7 5.0 5.2 5.3
5.1 4.9 4.7 4.5 4.6 4.6 4.7 4.6 4.7 4.7 4.5 4.3 4.0 3.8 3.9 4.1 4.2 4.4 4.4 4.5 4.7 5.1 5.3 5.6 5.8 5.9 6.2 6.4 6.5 6.5 6.4 6.3 6.2 6.0 5.8 5.5 5.3 5.0 5.1 4.9 4.9 5.3 5.4 5.4
4.5 4.6 4.7 4.7 4.7 4.8 4.7 4.6 4.6 4.4 4.3 4.1 4.0 4.0 4.2 4.4 4.5 4.5 4.7 5.1 5.3 5.5 5.5 5.7 6.0 6.2 6.5 6.5 6.6 6.5 6.4 6.3 6.0 5.7 5.5 5.2 5.0 5.1 5.1 4.9 5.1 5.4 5.5 5.5
4.4 4.5 4.6 4.7 4.6 4.6 4.7 4.6 4.4 4.4 4.3 4.3 4.4 4.6 4.6 4.7 4.9 5.1 5.3 5.4 5.5 5.6 6.0 6.3 6.5 6.6 6.6 6.6 6.6 6.4 6.1 5.8 5.6 5.5 5.3 5.0 5.0 5.2 5.1 5.1 5.3 5.6 5.7 5.7
4.7 4.6 4.5 4.5 4.5 4.6 4.6 4.6 4.6 4.6 4.6 4.6 4.6 4.7 5.0 5.2 5.3 5.3 5.4 5.6 5.8 6.1 6.3 6.5 6.6 6.6 6.6 6.5 6.3 6.0 5.7 5.6 5.4 5.3 5.1 4.9 5.1 5.2 5.1 5.3 5.7 5.7 5.7 5.7
4.4 4.4 4.4 4.4 4.6 4.7 4.7 4.6 4.5 4.6 4.9 5.1 5.3 5.4 5.4 5.5 5.7 5.7 5.9 6.2 6.3 6.3 6.4 6.5 6.5 6.4 6.3 6.1 5.9 5.7 5.6 5.4 5.3 5.2 5.0 5.0 5.2 5.2 5.3 5.5 5.7 5.7 5.7 5.9
Wind_Speed
4 4 4 5 4 8 7 5 6 7 7 9 7 5 7 6 3 3 3 4 4 4 4 5 6 5 5 4 5 4 4 3 4 4 5 6 7 8 7 5 6 5 4 3
2 2 2 3 5 5 4 3 5 6 7 7 3 1 4 4 5 7 7 6 4 3 1 3 5 6 6 7 8 7 6 6 6 6 6 6 7 9 8 9 7 6 6 4
4 3 4 7 9 9 6 5 7 7 10 6 2 3 3 5 6 8 8 8 9 9 8 6 1 3 5 6 6 7 7 7 8 8 10 9 8 8 7 6 6 5 2 4
3 2 2 7 1 3 8 7 6 5 3 6 7 4 6 6 5 8 7 9 8 7 7 9 8 9 9 8 10 11 10 11 10 11 10 8 8 8 6 4 2 3 3 4
5 4 5 4 5 7 8 8 7 6 6 7 7 5 6 7 8 7 6 5 5 6 7 9 10 9 12 12 12 12 11 11 10 9 9 7 6 4 3 1 3 3 5 6
3 5 8 8 5 5 4 4 8 8 9 9 6 4 3 5 4 7 7 7 8 8 8 10 7 9 12 11 11 11 9 9 7 6 5 4 3 2 2 3 4 4 5 5
2 3 7 8 4 4 6 8 8 11 8 8 5 3 7 8 8 7 7 8 8 10 10 7 6 11 12 10 10 5 5 5 5 4 3 3 1 1 3 4 5 5 5 6
3 3 7 7 4 9 7 1 6 7 8 7 8 9 9 9 8 9 10 9 8 10 9 7 7 10 10 9 5 5 5 5 4 4 3 2 3 3 4 4 5 5 4 6
9 7 4 6 5 5 4 6 7 8 6 10 12 6 7 9 9 8 9 7 6 10 10 8 7 7 9 5 5 5 6 5 5 4 4 4 4 4 4 4 3 5 5 6
4 5 6 5 3 2 2 4 5 4 8 9 10 11 12 10 9 9 7 8 8 11 11 9 8 9 7 6 5 6 6 6 5 5 5 5 3 3 4 4 4 6 6 7
3 4 2 6 5 4 4 7 9 8 5 11 15 12 12 10 9 8 7 7 8 10 10 10 9 10 9 8 7 6 6 5 5 4 4 5 4 4 4 5 6 7 6 7
7 9 7 5 9 7 7 6 8 14 10 8 11 13 13 10 8 8 9 9 10 10 11 10 10 9 8 7 7 6 6 5 4 3 3 4 4 7 6 11 12 14 16 12
5 8 4 9 8 4 9 8 9 11 13 14 11 13 13 11 6 11 10 10 10 11 9 8 8 9 9 8 7 7 5 6 5 5 6 6 7 8 10 8 14 16 18 19
10 13 6 5 6 9 13 13 15 14 12 12 13 11 12 11 10 11 10 10 10 10 8 8 8 9 7 6 6 6 5 7 5 5 5 5 5 6 6 8 11 11 13 16
2 5 7 15 15 13 13 14 15 13 13 12 11 12 12 12 12 11 10 11 10 9 8 7 7 6 6 7 7 8 5 4 5 3 3 4 5 6 7 7 8 8 10 10
12 12 14 16 15 14 14 12 16 13 12 12 12 11 10 11 10 11 10 8 7 8 8 6 6 7 7 7 7 6 5 8 6 5 5 5 6 7 8 8 8 8 8 10
17 9 13 14 14 14 12 11 14 13 13 13 12 12 12 12 11 11 10 9 8 8 7 6 6 6 6 7 7 5 4 4 6 4 5 6 6 6 7 7 7 7 8 9
7 9 8 15 16 15 12 11 13 14 12 12 11 11 11 9 10 10 9 8 8 8 7 6 6 6 6 8 7 5 4 5 5 5 5 5 5 6 6 6 7 8 8 9
10 14 14 13 12 12 12 11 9 12 12 12 11 9 8 9 10 8 8 7 5 6 5 5 6 5 6 8 5 4 3 5 4 4 5 5 4 6 6 6 6 7 8 8
13 13 15 15 13 14 13 9 11 12 10 11 11 10 10 8 8 7 5 7 5 4 5 5 5 5 5 5 5 4 3 3 4 3 2 3 3 3 4 6 6 7 7 7
13 14 14 14 13 11 12 9 11 11 10 8 9 8 8 7 6 6 5 4 4 4 5 5 3 2 3 3 3 2 2 3 3 2 2 3 4 4 4 4 4 6 7 7
11 12 13 13 12 11 9 8 9 10 9 9 8 9 9 8 5 5 4 3 4 4 3 2 2 3 2 2 2 1 1 2 1 2 2 3 2 4 4 4 5 6 6 7
10 12 12 11 11 10 9 8 8 9 8 7 7 6 5 4 3 3 3 3 3 3 3 2 1 2 2 2 1 0 0 1 2 2 2 2 2 3 3 5 6 6 6 7
11 11 11 10 10 10 11 9 9 8 7 7 6 5 6 4 3 3 4 4 5 4 3 1 1 2 2 0 1 1 2 1 2 2 2 3 2 3 3 4 6 6 6 7
11 11 11 10 10 7 10 9 8 7 8 7 6 4 5 2 2 2 3 2 3 3 1 2 1 2 0 1 2 3 3 2 2 2 2 2 3 4 4 4 5 6 6 6
11 9 9 11 8 6 6 5 5 3 4 3 2 2 3 3 4 3 3 3 2 2 0 1 1 1 1 2 3 3 3 3 2 2 2 3 3 4 4 5 6 6 6 7
10 11 8 8 7 6 5 4 4 3 2 1 2 2 3 3 3 3 3 2 2 2 2 2 1 2 2 2 3 3 2 2 3 2 2 3 2 3 3 5 7 10 11 11
Wind_Direction
217 216 180 201 182 166 183 194 168 242 204 257 259 277 286 287 284 190 234 224 228 212 171 156 171 153 151 154 135 132 135 128 147 128 115 109 111 118 113 96 113 105 84 55
136 101 82 234 249 218 232 190 245 232 253 228 299 283 22 35 85 69 54 36 10 321 218 186 186 189 176 165 161 154 141 133 118 102 100 111 117 117 106 117 108 85 40 21
219 23 47 317 219 214 202 198 181 210 225 156 148 108 41 65 77 77 61 44 33 25 28 28 29 178 114 102 100 101 103 94 92 96 95 88 71 64 70 72 61 54 53 277
157 53 256 252 306 197 199 235 230 276 217 159 144 98 64 28 92 72 54 40 29 23 32 31 42 59 76 78 84 88 88 91 99 104 95 85 81 85 75 69 63 244 252 259
139 189 290 281 210 173 174 253 194 186 145 135 139 113 43 33 50 70 75 74 66 46 47 50 55 67 82 80 88 91 93 91 86 84 95 94 86 102 176 181 232 238 237 248
134 159 212 234 234 158 106 275 177 151 165 158 157 106 189 110 89 81 70 63 67 61 66 68 56 80 87 88 92 89 91 96 100 110 110 100 129 147 193 224 251 252 264 255
117 206 286 246 235 144 133 239 171 162 166 163 163 158 127 120 88 84 85 79 74 72 72 64 70 88 81 81 78 84 96 103 105 102 118 134 214 262 274 270 279 269 269 276
92 68 282 174 103 172 216 307 157 151 157 138 117 115 112 110 105 100 93 85 84 86 76 62 62 83 81 80 78 79 78 73 65 51 17 348 305 288 281 276 275 278 280 283
177 209 223 211 210 226 177 161 166 139 151 138 135 138 127 120 109 101 102 92 86 91 81 62 59 72 86 72 73 71 62 47 30 8 356 342 322 310 306 292 272 280 276 279
107 214 220 235 242 241 167 157 123 119 139 144 129 132 121 119 115 110 105 103 99 95 88 76 63 59 58 50 53 56 47 30 16 7 346 342 327 304 292 286 282 276 276 275
282 279 335 250 229 173 115 105 98 72 97 123 126 125 127 122 117 114 106 97 97 94 88 79 67 56 42 35 44 48 44 29 16 4 353 332 313 285 285 263 256 281 279 276
213 188 166 202 154 144 133 120 116 117 100 97 124 127 126 117 116 115 108 104 93 87 86 77 67 53 35 31 40 42 34 16 357 345 336 330 319 325 291 283 292 289 288 281
191 132 79 111 104 87 113 113 105 106 119 118 113 121 118 116 109 103 96 93 90 88 86 77 66 54 34 26 31 34 25 13 7 1 353 346 344 334 327 325 317 319 315 307
120 110 71 179 160 121 116 110 102 96 100 110 114 108 111 105 97 97 94 98 100 98 82 77 66 55 27 16 26 30 22 19 11 351 344 341 333 332 328 330 330 332 331 328
1 11 115 117 114 115 117 120 108 109 113 106 108 114 113 109 107 109 111 113 97 88 82 77 68 44 24 24 33 28 18 12 358 335 330 337 341 343 340 336 339 340 341 350
99 101 112 117 122 125 124 122 120 123 119 117 112 107 105 108 113 117 121 119 112 96 84 68 61 38 32 25 31 27 12 10 0 352 355 359 353 348 347 343 344 339 339 344
115 119 123 125 132 135 135 133 130 129 126 124 124 122 119 114 110 110 99 99 100 95 85 68 52 43 34 24 34 22 8 12 2 4 6 2 352 349 347 341 337 343 337 336
114 122 126 138 139 133 129 128 124 125 126 122 118 119 119 122 128 123 117 114 108 96 81 69 52 45 42 31 35 24 27 11 3 13 1 359 347 353 343 337 345 337 334 332
108 118 115 116 121 117 116 114 107 112 114 119 120 116 113 118 122 119 118 111 120 115 86 75 62 53 42 39 34 32 43 20 9 14 1 350 345 349 341 333 341 332 330 332
98 97 100 103 104 112 108 102 118 111 112 113 113 118 118 116 119 117 111 98 88 101 106 82 71 59 42 41 37 39 37 26 14 5 352 341 331 327 325 325 337 330 323 323
97 99 98 100 98 100 105 124 125 119 116 112 121 122 125 123 123 133 124 114 110 126 108 98 79 56 45 17 43 49 56 28 9 323 347 336 338 332 321 309 322 322 318 321
99 101 101 101 104 95 90 97 106 107 105 102 102 113 118 119 111 85 65 112 121 119 97 90 83 59 45 17 52 44 59 25 345 332 357 346 330 326 317 309 315 317 313 312
97 102 101 100 104 103 93 88 87 100 108 113 119 122 119 124 127 125 139 112 106 117 99 82 75 67 63 58 67 65 270 353 331 320 309 320 304 301 303 314 313 305 307 310
91 88 92 96 101 101 101 94 94 90 92 97 95 99 120 111 55 55 89 98 99 96 106 137 91 53 70 69 239 235 236 264 289 284 289 305 301 301 307 307 308 304 301 303
91 93 95 97 94 96 106 106 96 92 94 99 100 96 104 73 139 141 98 77 100 94 114 7 39 34 37 254 263 249 242 252 257 240 266 290 304 311 304 299 293 297 302 302
79 78 77 76 84 87 98 102 104 100 104 107 91 96 83 88 93 93 83 71 63 54 116 325 277 305 278 263 269 260 247 265 284 255 261 291 300 306 302 305 302 301 299 300
66 69 74 67 54 55 60 70 98 101 84 82 100 137 124 101 96 96 77 45 20 343 300 274 270 265 269 283 295 282 275 262 252 235 261 291 290 284 290 295 298 299 300 300